CPA3974 VHHH-VMMC

Flight info

Callsign CPA3974
Flight time 0h 28m
Altitude 16000
Route PECAN3X/07R PECAN DCT CHALI CHALI4A/34
Aircraft B77W/H-SDE3GHIJ2J3J7M3P2RWXYZ/LB1D1

Departure

Time 2026-04-26 12:37
Airport Hong Kong International Airport (VHHH)

Arrival

Time 2026-04-26 13:06
Airport Macau International Airport (VMMC)
Time Latitude Longitude Altitude Speed Heading
2026-04-26 12:37 22.18013 113.62747 1945 ft 159 kts 161°
2026-04-26 12:39 22.17532 113.62920 1758 ft 168 kts 160°
2026-04-26 12:40 22.16762 113.63181 1615 ft 171 kts 161°
2026-04-26 12:40 22.15627 113.63593 1496 ft 169 kts 161°
2026-04-26 12:40 22.14499 113.63969 1499 ft 170 kts 161°
2026-04-26 12:40 22.13363 113.64366 1515 ft 170 kts 160°
2026-04-26 12:41 22.12239 113.64761 1540 ft 168 kts 160°
2026-04-26 12:41 22.11105 113.65157 1601 ft 169 kts 160°
2026-04-26 12:41 22.09939 113.65384 1546 ft 172 kts 191°
2026-04-26 12:41 22.09067 113.64584 1352 ft 168 kts 243°
2026-04-26 12:42 22.08688 113.63434 1091 ft 161 kts 265°
2026-04-26 12:42 22.08903 113.62292 959 ft 154 kts 298°
2026-04-26 12:42 22.09612 113.61425 897 ft 155 kts 319°
2026-04-26 12:42 22.10516 113.60789 689 ft 153 kts 334°
2026-04-26 12:43 22.11494 113.60382 486 ft 151 kts 343°
2026-04-26 12:43 22.12505 113.60028 355 ft 152 kts 343°
2026-04-26 12:43 22.13502 113.59667 120 ft 151 kts 342°
2026-04-26 12:43 22.14489 113.59306 25 ft 136 kts 341°
2026-04-26 12:44 22.15516 113.58926 235 ft 187 kts 340°
2026-04-26 12:44 22.16758 113.58442 1162 ft 184 kts 345°
2026-04-26 12:44 22.17945 113.58579 1404 ft 174 kts 38°
2026-04-26 12:44 22.18644 113.59619 1410 ft 170 kts 82°
2026-04-26 12:45 22.18428 113.60824 1527 ft 167 kts 126°
2026-04-26 12:45 22.17463 113.61560 1460 ft 171 kts 159°
2026-04-26 12:45 22.16342 113.61964 1433 ft 168 kts 159°
2026-04-26 12:45 22.15221 113.62372 1476 ft 168 kts 159°
2026-04-26 12:46 22.14109 113.62785 1484 ft 169 kts 159°
2026-04-26 12:46 22.12986 113.63199 1476 ft 168 kts 159°
2026-04-26 12:46 22.11866 113.63613 1490 ft 169 kts 159°
2026-04-26 12:46 22.10750 113.64026 1476 ft 166 kts 160°
2026-04-26 12:47 22.09661 113.64015 1375 ft 159 kts 209°
2026-04-26 12:47 22.09105 113.63039 1177 ft 153 kts 262°
2026-04-26 12:47 22.09307 113.61918 989 ft 156 kts 300°
2026-04-26 12:47 22.10052 113.61109 695 ft 152 kts 323°
2026-04-26 12:48 22.10984 113.60569 452 ft 152 kts 344°
2026-04-26 12:48 22.11993 113.60229 320 ft 150 kts 342°
2026-04-26 12:48 22.12978 113.59855 194 ft 146 kts 343°
2026-04-26 12:48 22.13954 113.59500 40 ft 150 kts 342°
2026-04-26 12:49 22.14904 113.59160 31 ft 152 kts 339°
2026-04-26 12:49 22.16077 113.58702 796 ft 196 kts 341°
2026-04-26 12:49 22.17417 113.58204 1522 ft 202 kts 346°
2026-04-26 12:49 22.18729 113.58260 1508 ft 186 kts 29°
2026-04-26 12:50 22.19542 113.59229 1435 ft 173 kts 77°
2026-04-26 12:50 22.19384 113.60448 1469 ft 168 kts 128°
2026-04-26 12:50 22.18395 113.61095 1525 ft 169 kts 160°
2026-04-26 12:50 22.17259 113.61506 1448 ft 169 kts 160°
2026-04-26 12:51 22.16156 113.61912 1444 ft 167 kts 159°
2026-04-26 12:51 22.15046 113.62322 1509 ft 168 kts 160°
2026-04-26 12:51 22.13912 113.62731 1496 ft 170 kts 160°
2026-04-26 12:51 22.12790 113.63137 1460 ft 169 kts 159°
2026-04-26 12:52 22.11687 113.63544 1456 ft 169 kts 159°
2026-04-26 12:52 22.10555 113.63955 1479 ft 169 kts 159°
2026-04-26 12:52 22.09423 113.64236 1470 ft 165 kts 183°
2026-04-26 12:52 22.08468 113.63633 1283 ft 164 kts 234°
2026-04-26 12:53 22.08202 113.62475 1046 ft 159 kts 274°
2026-04-26 12:53 22.08664 113.61448 916 ft 154 kts 326°
2026-04-26 12:53 22.09659 113.61034 632 ft 152 kts 343°
2026-04-26 12:53 22.10669 113.60692 533 ft 149 kts 343°
2026-04-26 12:54 22.11672 113.60342 457 ft 151 kts 343°
2026-04-26 12:54 22.12674 113.59969 309 ft 151 kts 343°
2026-04-26 12:54 22.13690 113.59597 85 ft 151 kts 342°
2026-04-26 12:54 22.14645 113.59249 25 ft 134 kts 342°
2026-04-26 12:55 22.15619 113.58884 200 ft 179 kts 341°
2026-04-26 12:55 22.16868 113.58403 1267 ft 207 kts 341°
2026-04-26 12:55 22.18203 113.57998 1487 ft 191 kts
2026-04-26 12:55 22.19403 113.58385 1457 ft 177 kts 42°
2026-04-26 12:56 22.19949 113.59485 1515 ft 167 kts 97°
2026-04-26 12:56 22.19338 113.60499 1727 ft 171 kts 146°
2026-04-26 12:56 22.18238 113.60980 1691 ft 172 kts 160°
2026-04-26 12:56 22.17122 113.61383 1554 ft 167 kts 159°
2026-04-26 12:57 22.16059 113.61777 1495 ft 168 kts 160°
2026-04-26 12:57 22.14943 113.62192 1485 ft 168 kts 160°
2026-04-26 12:57 22.13839 113.62602 1485 ft 168 kts 160°
2026-04-26 12:58 22.11606 113.63430 1484 ft 168 kts 160°
2026-04-26 12:58 22.10494 113.63843 1485 ft 168 kts 159°
2026-04-26 12:58 22.09354 113.64108 1508 ft 170 kts 184°
2026-04-26 12:58 22.08376 113.63426 1491 ft 178 kts 239°
2026-04-26 12:59 22.08233 113.62154 1319 ft 168 kts 284°
2026-04-26 12:59 22.08902 113.61211 1028 ft 161 kts 339°
2026-04-26 12:59 22.09975 113.60951 746 ft 150 kts 349°
2026-04-26 12:59 22.10969 113.60590 585 ft 150 kts 343°
2026-04-26 13:00 22.11966 113.60227 421 ft 150 kts 343°
2026-04-26 13:00 22.12953 113.59867 220 ft 150 kts 343°
2026-04-26 13:00 22.13947 113.59503 35 ft 148 kts 343°
2026-04-26 13:00 22.14871 113.59165 26 ft 130 kts 342°
2026-04-26 13:01 22.15795 113.58828 229 ft 159 kts 344°
2026-04-26 13:01 22.16908 113.58453 857 ft 172 kts 345°
2026-04-26 13:01 22.18058 113.58287 1178 ft 163 kts 18°
2026-04-26 13:01 22.18886 113.59066 1486 ft 166 kts 73°
2026-04-26 13:02 22.18774 113.60264 1474 ft 166 kts 128°
2026-04-26 13:02 22.17794 113.60901 1502 ft 167 kts 159°
2026-04-26 13:02 22.16674 113.61304 1473 ft 167 kts 160°
2026-04-26 13:02 22.15557 113.61710 1477 ft 168 kts 160°
2026-04-26 13:03 22.14451 113.62112 1530 ft 169 kts 159°
2026-04-26 13:03 22.13323 113.62531 1488 ft 169 kts 159°
2026-04-26 13:03 22.12210 113.62947 1469 ft 168 kts 160°
2026-04-26 13:03 22.11100 113.63348 1485 ft 162 kts 160°
2026-04-26 13:04 22.10051 113.63455 1406 ft 151 kts 203°
2026-04-26 13:04 22.09358 113.62650 1335 ft 153 kts 253°
2026-04-26 13:04 22.09592 113.61560 1053 ft 154 kts 309°
2026-04-26 13:04 22.10383 113.60789 799 ft 154 kts 338°
2026-04-26 13:05 22.11386 113.60445 520 ft 150 kts 345°
2026-04-26 13:05 22.12374 113.60075 357 ft 151 kts 343°
2026-04-26 13:05 22.13369 113.59715 158 ft 149 kts 343°
2026-04-26 13:05 22.14350 113.59354 30 ft 140 kts 343°
2026-04-26 13:06 22.15160 113.59060 25 ft 106 kts 341°
2026-04-26 13:06 22.15752 113.58843 21 ft 70 kts 343°
2026-04-26 13:06 22.16066 113.58727 21 ft 30 kts 341°
2026-04-26 13:06 22.16196 113.58644 21 ft 20 kts 293°
2026-04-26 13:07 22.16228 113.58489 17 ft 22 kts 281°
2026-04-26 13:07 22.16256 113.58332 16 ft 19 kts 277°
2026-04-26 13:07 22.16224 113.58182 16 ft 22 kts 251°
2026-04-26 13:07 22.16173 113.58024 16 ft 24 kts 251°
2026-04-26 13:08 22.16118 113.57848 17 ft 19 kts 252°
2026-04-26 13:08 22.16064 113.57757 20 ft 14 kts 206°
2026-04-26 13:08 22.15957 113.57723 20 ft 17 kts 195°
2026-04-26 13:08 22.15830 113.57687 20 ft 20 kts 195°